QPF
0.02 0.02 0.03 0.04 0.03 0.01 0.02 0.03 0.02 0.02 0.04 0.04 0.02 0.03 0.02 0.01 0.01 0.01 0.01 0.03 0.04 0.02 0.03 0.06 0.10 0.08 0.06 0.05 0.05 0.05 0.06 0.06 0.05 0.05 0.05 0.03 0.03 0.05 0.08 0.08 0.07 0.06 0.07 0.07 0.11 0.09 0.06 0.06 0.06
0.02 0.02 0.02 0.02 0.02 0.01 0.02 0.04 0.04 0.03 0.02 0.03 0.01 0.01 0.02 0.02 0.01 0.01 0.02 0.03 0.04 0.02 0.01 0.04 0.07 0.08 0.05 0.04 0.05 0.04 0.04 0.05 0.04 0.04 0.04 0.05 0.04 0.06 0.08 0.08 0.06 0.05 0.06 0.07 0.13 0.12 0.06 0.06 0.06
0.02 0.02 0.02 0.02 0.02 0.01 0.02 0.02 0.04 0.05 0.02 0.02 0.01 0.01 0.01 0.01 0.01 0.01 0.01 0.02 0.02 0.02 0.02 0.04 0.05 0.05 0.04 0.04 0.04 0.05 0.07 0.05 0.04 0.04 0.04 0.05 0.04 0.04 0.05 0.06 0.04 0.02 0.03 0.05 0.09 0.13 0.07 0.06 0.07
0.01 0.02 0.01 0.01 0.01 0.02 0.02 0.03 0.04 0.05 0.03 0.02 0.01 0.00 0.00 0.01 0.01 0.02 0.02 0.02 0.02 0.01 0.03 0.04 0.04 0.05 0.04 0.03 0.04 0.07 0.08 0.07 0.07 0.05 0.04 0.05 0.05 0.04 0.04 0.05 0.04 0.02 0.02 0.03 0.05 0.07 0.07 0.07 0.06
0.02 0.01 0.01 0.01 0.02 0.03 0.04 0.05 0.05 0.05 0.04 0.02 0.01 0.00 0.01 0.01 0.02 0.03 0.04 0.02 0.02 0.02 0.03 0.03 0.03 0.05 0.04 0.03 0.04 0.05 0.05 0.06 0.07 0.07 0.06 0.06 0.06 0.06 0.06 0.05 0.03 0.02 0.03 0.03 0.07 0.10 0.07 0.07 0.06
0.01 0.00 0.00 0.01 0.02 0.05 0.06 0.07 0.06 0.06 0.05 0.03 0.01 0.00 0.01 0.02 0.02 0.03 0.05 0.02 0.01 0.02 0.02 0.01 0.03 0.04 0.04 0.04 0.05 0.05 0.06 0.06 0.06 0.06 0.07 0.06 0.06 0.06 0.05 0.04 0.03 0.03 0.03 0.04 0.05 0.08 0.06 0.05 0.05
0.00 0.00 0.00 0.01 0.02 0.05 0.05 0.05 0.07 0.07 0.05 0.03 0.02 0.01 0.02 0.03 0.03 0.04 0.03 0.02 0.01 0.01 0.01 0.01 0.02 0.03 0.04 0.04 0.07 0.08 0.07 0.06 0.05 0.05 0.04 0.04 0.04 0.04 0.03 0.04 0.04 0.05 0.04 0.03 0.04 0.05 0.06 0.05 0.05
0.00 0.00 0.00 0.00 0.02 0.03 0.03 0.04 0.05 0.06 0.06 0.02 0.02 0.01 0.02 0.03 0.04 0.05 0.03 0.02 0.02 0.01 0.01 0.01 0.01 0.01 0.01 0.01 0.03 0.05 0.05 0.05 0.05 0.04 0.04 0.04 0.04 0.03 0.04 0.04 0.07 0.06 0.04 0.04 0.04 0.05 0.07 0.07 0.06
0.00 0.00 0.00 0.01 0.01 0.02 0.01 0.02 0.04 0.05 0.06 0.04 0.03 0.02 0.02 0.03 0.05 0.05 0.03 0.02 0.02 0.01 0.01 0.01 0.01 0.01 0.01 0.01 0.01 0.02 0.02 0.03 0.03 0.03 0.03 0.02 0.01 0.01 0.03 0.03 0.04 0.06 0.06 0.05 0.04 0.05 0.06 0.06 0.06
0.00 0.00 0.00 0.00 0.00 0.01 0.01 0.01 0.03 0.05 0.05 0.04 0.03 0.02 0.02 0.02 0.04 0.05 0.03 0.02 0.01 0.01 0.01 0.01 0.01 0.01 0.00 0.00 0.00 0.00 0.00 0.01 0.01 0.00 0.00 0.01 0.01 0.01 0.02 0.03 0.05 0.05 0.05 0.04 0.03 0.03 0.03 0.03 0.02
0.00 0.00 0.00 0.01 0.01 0.02 0.02 0.01 0.02 0.02 0.02 0.03 0.03 0.02 0.01 0.02 0.03 0.03 0.04 0.05 0.03 0.01 0.01 0.02 0.02 0.02 0.01 0.01 0.00 0.00 0.00 0.01 0.01 0.01 0.00 0.00 0.01 0.01 0.01 0.01 0.02 0.01 0.02 0.01 0.01 0.01 0.02 0.02 0.01
0.00 0.00 0.01 0.01 0.01 0.01 0.02 0.02 0.02 0.03 0.01 0.02 0.03 0.03 0.02 0.02 0.02 0.02 0.02 0.05 0.04 0.02 0.02 0.02 0.02 0.02 0.01 0.01 0.00 0.00 0.00 0.00 0.00 0.00 0.00 0.00 0.00 0.00 0.00 0.00 0.01 0.01 0.01 0.01 0.01 0.01 0.01 0.01 0.01
0.00 0.01 0.01 0.01 0.01 0.01 0.01 0.01 0.01 0.02 0.02 0.02 0.02 0.04 0.03 0.02 0.02 0.02 0.02 0.04 0.05 0.06 0.04 0.03 0.02 0.02 0.01 0.02 0.01 0.01 0.01 0.00 0.00 0.01 0.01 0.00 0.01 0.01 0.01 0.01 0.02 0.02 0.02 0.01 0.01 0.01 0.01 0.01 0.01
0.01 0.01 0.01 0.01 0.02 0.02 0.01 0.01 0.01 0.01 0.01 0.02 0.02 0.05 0.05 0.03 0.02 0.02 0.02 0.03 0.04 0.05 0.06 0.04 0.04 0.02 0.01 0.02 0.01 0.01 0.00 0.00 0.00 0.02 0.02 0.01 0.01 0.01 0.01 0.01 0.01 0.02 0.01 0.01 0.02 0.02 0.01 0.01 0.01
0.00 0.01 0.01 0.02 0.01 0.01 0.01 0.00 0.00 0.01 0.01 0.01 0.01 0.03 0.06 0.04 0.02 0.02 0.02 0.03 0.04 0.04 0.05 0.05 0.05 0.04 0.02 0.01 0.01 0.01 0.01 0.01 0.01 0.02 0.01 0.01 0.01 0.01 0.01 0.01 0.01 0.01 0.01 0.01 0.02 0.01 0.00 0.00 0.00
0.01 0.01 0.01 0.01 0.02 0.01 0.01 0.00 0.01 0.01 0.01 0.01 0.01 0.01 0.03 0.04 0.03 0.02 0.01 0.02 0.03 0.05 0.04 0.03 0.03 0.04 0.03 0.02 0.02 0.01 0.01 0.01 0.01 0.01 0.01 0.00 0.01 0.01 0.01 0.01 0.01 0.01 0.01 0.01 0.01 0.01 0.01 0.00 0.01
0.01 0.01 0.00 0.01 0.01 0.02 0.01 0.00 0.01 0.01 0.01 0.01 0.01 0.02 0.02 0.02 0.02 0.02 0.01 0.01 0.02 0.03 0.04 0.03 0.02 0.03 0.03 0.02 0.02 0.01 0.01 0.01 0.01 0.01 0.01 0.00 0.00 0.00 0.01 0.01 0.01 0.01 0.01 0.01 0.02 0.01 0.01 0.01 0.02
0.01 0.01 0.01 0.01 0.01 0.01 0.01 0.00 0.01 0.01 0.01 0.01 0.01 0.02 0.03 0.03 0.02 0.02 0.01 0.01 0.01 0.01 0.03 0.04 0.02 0.03 0.04 0.03 0.02 0.01 0.00 0.01 0.01 0.00 0.00 0.00 0.00 0.01 0.01 0.01 0.01 0.02 0.01 0.01 0.01 0.01 0.01 0.02 0.03
0.00 0.00 0.01 0.01 0.01 0.02 0.01 0.00 0.01 0.02 0.01 0.00 0.00 0.02 0.04 0.04 0.03 0.03 0.02 0.01 0.01 0.01 0.02 0.03 0.03 0.02 0.03 0.03 0.02 0.01 0.00 0.00 0.00 0.00 0.00 0.00 0.00 0.00 0.01 0.01 0.01 0.01 0.02 0.01 0.01 0.02 0.03 0.03 0.03
0.01 0.01 0.01 0.01 0.01 0.01 0.01 0.01 0.02 0.02 0.01 0.00 0.00 0.01 0.02 0.01 0.02 0.03 0.03 0.02 0.02 0.02 0.02 0.02 0.02 0.02 0.02 0.03 0.02 0.02 0.01 0.01 0.01 0.00 0.00 0.00 0.00 0.00 0.00 0.00 0.01 0.01 0.01 0.01 0.01 0.02 0.02 0.03 0.02
0.01 0.01 0.02 0.01 0.01 0.01 0.01 0.01 0.01 0.01 0.01 0.01 0.00 0.00 0.00 0.00 0.01 0.01 0.01 0.01 0.01 0.01 0.01 0.02 0.03 0.02 0.03 0.04 0.03 0.02 0.01 0.01 0.01 0.00 0.00 0.00 0.00 0.00 0.00 0.00 0.00 0.01 0.01 0.01 0.01 0.02 0.01 0.01 0.01
0.01 0.02 0.01 0.01 0.01 0.01 0.01 0.00 0.00 0.00 0.01 0.00 0.00 0.00 0.00 0.00 0.00 0.00 0.00 0.00 0.01 0.01 0.01 0.01 0.02 0.03 0.03 0.04 0.04 0.04 0.04 0.02 0.02 0.01 0.00 0.00 0.00 0.00 0.00 0.00 0.01 0.01 0.02 0.01 0.01 0.01 0.02 0.01 0.01
0.01 0.01 0.01 0.01 0.00 0.00 0.00 0.00 0.00 0.00 0.00 0.01 0.00 0.00 0.00 0.00 0.00 0.00 0.00 0.00 0.00 0.01 0.01 0.01 0.02 0.02 0.03 0.03 0.03 0.03 0.04 0.04 0.03 0.02 0.01 0.01 0.00 0.00 0.00 0.00 0.00 0.01 0.01 0.01 0.01 0.01 0.01 0.01 0.01
0.01 0.01 0.01 0.01 0.01 0.00 0.00 0.00 0.00 0.01 0.01 0.01 0.01 0.00 0.00 0.00 0.01 0.01 0.01 0.01 0.01 0.01 0.01 0.01 0.02 0.02 0.02 0.03 0.03 0.02 0.02 0.03 0.03 0.02 0.01 0.01 0.00 0.00 0.00 0.01 0.01 0.01 0.01 0.01 0.02 0.02 0.02 0.02 0.02
0.01 0.01 0.01 0.01 0.01 0.01 0.00 0.01 0.01 0.03 0.03 0.01 0.01 0.00 0.01 0.01 0.01 0.01 0.01 0.01 0.00 0.00 0.01 0.01 0.01 0.02 0.02 0.02 0.02 0.01 0.02 0.02 0.01 0.01 0.01 0.01 0.01 0.01 0.01 0.01 0.01 0.01 0.01 0.02 0.02 0.03 0.03 0.03 0.04
0.01 0.01 0.01 0.01 0.00 0.01 0.02 0.02 0.02 0.01 0.00 0.00 0.00 0.00 0.01 0.01 0.01 0.02 0.02 0.02 0.01 0.01 0.01 0.01 0.01 0.01 0.02 0.03 0.02 0.01 0.01 0.02 0.02 0.01 0.01 0.01 0.01 0.01 0.01 0.01 0.01 0.01 0.01 0.01 0.01 0.01 0.02 0.03 0.03
0.00 0.00 0.00 0.00 0.01 0.01 0.01 0.01 0.00 0.00 0.00 0.00 0.01 0.01 0.01 0.02 0.01 0.01 0.02 0.02 0.02 0.02 0.02 0.01 0.02 0.02 0.03 0.04 0.04 0.03 0.02 0.02 0.02 0.02 0.01 0.01 0.02 0.01 0.01 0.01 0.01 0.01 0.01 0.01 0.01 0.01 0.01 0.01 0.01
0.01 0.00 0.00 0.00 0.00 0.00 0.00 0.00 0.01 0.01 0.00 0.00 0.01 0.01 0.01 0.02 0.01 0.00 0.01 0.01 0.02 0.02 0.02 0.02 0.02 0.03 0.05 0.06 0.05 0.04 0.03 0.03 0.03 0.02 0.02 0.02 0.03 0.03 0.02 0.01 0.01 0.01 0.01 0.01 0.01 0.01 0.00 0.00 0.00
0.01 0.01 0.01 0.00 0.00 0.00 0.00 0.01 0.01 0.01 0.01 0.00 0.01 0.02 0.02 0.01 0.01 0.01 0.01 0.01 0.01 0.01 0.01 0.02 0.02 0.02 0.03 0.05 0.06 0.05 0.04 0.03 0.03 0.03 0.03 0.03 0.04 0.04 0.03 0.03 0.03 0.02 0.02 0.01 0.01 0.01 0.01 0.00 0.00
0.01 0.01 0.01 0.01 0.00 0.00 0.00 0.00 0.01 0.01 0.01 0.01 0.01 0.03 0.05 0.05 0.03 0.02 0.01 0.01 0.01 0.01 0.01 0.01 0.01 0.02 0.02 0.03 0.04 0.06 0.07 0.07 0.06 0.05 0.04 0.05 0.05 0.04 0.04 0.03 0.02 0.02 0.02 0.02 0.01 0.01 0.01 0.01 0.00
MSLP
1009.74 1010.57 1011.59 1012.70 1013.78 1014.71 1015.41 1015.83 1015.98 1015.90 1015.69 1015.46 1015.29 1015.25 1015.32 1015.48 1015.64 1015.73 1015.66 1015.40 1014.97 1014.39 1013.77 1013.19 1012.73 1012.44 1012.30 1012.29 1012.37 1012.46 1012.53 1012.55 1012.53 1012.50 1012.48 1012.50 1012.57 1012.67 1012.77 1012.85 1012.88 1012.85 1012.76 1012.64 1012.53 1012.45 1012.42 1012.44 1012.49
1010.18 1011.17 1012.30 1013.46 1014.52 1015.36 1015.93 1016.19 1016.17 1015.96 1015.67 1015.39 1015.22 1015.20 1015.31 1015.51 1015.71 1015.83 1015.78 1015.54 1015.13 1014.60 1014.02 1013.49 1013.08 1012.81 1012.69 1012.69 1012.74 1012.80 1012.83 1012.81 1012.76 1012.70 1012.66 1012.67 1012.73 1012.82 1012.92 1012.99 1013.01 1012.96 1012.87 1012.76 1012.66 1012.60 1012.59 1012.63 1012.70
1010.71 1011.82 1013.02 1014.18 1015.18 1015.91 1016.34 1016.45 1016.31 1016.01 1015.66 1015.36 1015.20 1015.20 1015.34 1015.56 1015.77 1015.88 1015.84 1015.62 1015.24 1014.76 1014.25 1013.79 1013.44 1013.23 1013.14 1013.13 1013.17 1013.19 1013.17 1013.11 1013.01 1012.92 1012.85 1012.84 1012.88 1012.96 1013.04 1013.10 1013.10 1013.06 1012.98 1012.88 1012.80 1012.76 1012.78 1012.86 1012.97
1011.30 1012.49 1013.71 1014.84 1015.75 1016.37 1016.67 1016.67 1016.44 1016.09 1015.72 1015.43 1015.28 1015.30 1015.44 1015.65 1015.84 1015.93 1015.87 1015.65 1015.30 1014.87 1014.43 1014.05 1013.79 1013.63 1013.58 1013.58 1013.60 1013.58 1013.52 1013.41 1013.27 1013.14 1013.05 1013.02 1013.05 1013.11 1013.17 1013.22 1013.23 1013.19 1013.12 1013.05 1013.00 1013.00 1013.06 1013.17 1013.32
1011.94 1013.16 1014.36 1015.41 1016.22 1016.73 1016.93 1016.85 1016.59 1016.22 1015.87 1015.62 1015.50 1015.52 1015.65 1015.81 1015.95 1015.98 1015.88 1015.64 1015.31 1014.93 1014.57 1014.28 1014.09 1013.99 1013.97 1013.98 1013.98 1013.93 1013.83 1013.68 1013.51 1013.36 1013.26 1013.22 1013.24 1013.30 1013.36 1013.41 1013.42 1013.40 1013.35 1013.31 1013.30 1013.34 1013.45 1013.59 1013.77
1012.58 1013.78 1014.91 1015.87 1016.57 1016.98 1017.10 1017.00 1016.74 1016.42 1016.12 1015.92 1015.84 1015.86 1015.95 1016.05 1016.10 1016.05 1015.89 1015.62 1015.30 1014.96 1014.66 1014.44 1014.32 1014.28 1014.28 1014.29 1014.27 1014.20 1014.07 1013.90 1013.73 1013.58 1013.49 1013.46 1013.50 1013.57 1013.64 1013.70 1013.72 1013.72 1013.70 1013.69 1013.72 1013.81 1013.94 1014.12 1014.31
1013.19 1014.33 1015.36 1016.19 1016.77 1017.10 1017.18 1017.08 1016.87 1016.63 1016.42 1016.29 1016.25 1016.26 1016.31 1016.33 1016.28 1016.14 1015.91 1015.60 1015.27 1014.97 1014.72 1014.56 1014.49 1014.48 1014.50 1014.51 1014.47 1014.38 1014.24 1014.07 1013.92 1013.80 1013.75 1013.76 1013.83 1013.93 1014.02 1014.10 1014.14 1014.15 1014.16 1014.18 1014.25 1014.36 1014.52 1014.72 1014.91
1013.74 1014.79 1015.68 1016.38 1016.84 1017.09 1017.15 1017.08 1016.95 1016.81 1016.71 1016.66 1016.66 1016.67 1016.67 1016.62 1016.48 1016.25 1015.94 1015.60 1015.27 1014.98 1014.77 1014.65 1014.62 1014.63 1014.65 1014.65 1014.60 1014.50 1014.36 1014.22 1014.10 1014.05 1014.05 1014.13 1014.25 1014.38 1014.51 1014.60 1014.65 1014.68 1014.70 1014.74 1014.83 1014.97 1015.14 1015.34 1015.53
1014.23 1015.15 1015.89 1016.44 1016.80 1016.97 1017.03 1017.01 1016.96 1016.93 1016.93 1016.97 1017.01 1017.03 1016.99 1016.87 1016.65 1016.35 1015.99 1015.63 1015.29 1015.02 1014.85 1014.76 1014.73 1014.75 1014.76 1014.74 1014.68 1014.58 1014.46 1014.36 1014.31 1014.32 1014.40 1014.55 1014.72 1014.90 1015.05 1015.16 1015.23 1015.26 1015.29 1015.34 1015.44 1015.59 1015.77 1015.97 1016.14
1014.65 1015.43 1016.02 1016.43 1016.67 1016.80 1016.85 1016.88 1016.91 1016.98 1017.08 1017.19 1017.27 1017.29 1017.23 1017.06 1016.79 1016.44 1016.06 1015.69 1015.36 1015.11 1014.96 1014.88 1014.86 1014.87 1014.86 1014.82 1014.75 1014.66 1014.57 1014.52 1014.53 1014.62 1014.78 1014.99 1015.23 1015.45 1015.63 1015.75 1015.82 1015.86 1015.89 1015.95 1016.05 1016.20 1016.38 1016.57 1016.73
1015.02 1015.66 1016.11 1016.39 1016.54 1016.62 1016.67 1016.74 1016.85 1017.00 1017.17 1017.33 1017.44 1017.46 1017.38 1017.18 1016.89 1016.52 1016.14 1015.77 1015.47 1015.25 1015.11 1015.04 1015.02 1015.00 1014.97 1014.92 1014.84 1014.75 1014.69 1014.69 1014.76 1014.93 1015.16 1015.44 1015.73 1015.99 1016.20 1016.33 1016.41 1016.45 1016.48 1016.53 1016.64 1016.79 1016.97 1017.15 1017.30
1015.36 1015.88 1016.21 1016.38 1016.46 1016.51 1016.57 1016.66 1016.82 1017.02 1017.23 1017.41 1017.53 1017.55 1017.45 1017.25 1016.95 1016.59 1016.22 1015.89 1015.61 1015.41 1015.29 1015.22 1015.19 1015.15 1015.10 1015.03 1014.94 1014.87 1014.84 1014.87 1015.00 1015.22 1015.51 1015.84 1016.17 1016.47 1016.71 1016.86 1016.95 1017.01 1017.05 1017.11 1017.21 1017.37 1017.55 1017.73 1017.87
1015.69 1016.11 1016.35 1016.46 1016.49 1016.52 1016.58 1016.70 1016.88 1017.09 1017.31 1017.49 1017.59 1017.59 1017.48 1017.27 1016.98 1016.65 1016.32 1016.01 1015.77 1015.60 1015.48 1015.41 1015.36 1015.31 1015.24 1015.15 1015.07 1015.00 1014.99 1015.06 1015.22 1015.47 1015.80 1016.17 1016.54 1016.87 1017.14 1017.33 1017.45 1017.53 1017.59 1017.68 1017.79 1017.95 1018.13 1018.31 1018.45
1016.01 1016.36 1016.54 1016.62 1016.65 1016.68 1016.75 1016.88 1017.06 1017.26 1017.44 1017.58 1017.65 1017.61 1017.49 1017.27 1017.00 1016.70 1016.41 1016.14 1015.93 1015.77 1015.66 1015.58 1015.52 1015.45 1015.38 1015.29 1015.21 1015.15 1015.16 1015.24 1015.42 1015.69 1016.04 1016.42 1016.81 1017.18 1017.48 1017.72 1017.89 1018.02 1018.13 1018.24 1018.38 1018.54 1018.73 1018.90 1019.04
1016.30 1016.60 1016.76 1016.84 1016.89 1016.95 1017.05 1017.18 1017.34 1017.50 1017.63 1017.70 1017.71 1017.64 1017.49 1017.27 1017.02 1016.75 1016.49 1016.26 1016.07 1015.93 1015.82 1015.73 1015.66 1015.59 1015.52 1015.44 1015.37 1015.33 1015.35 1015.45 1015.62 1015.89 1016.23 1016.62 1017.02 1017.41 1017.76 1018.05 1018.29 1018.48 1018.65 1018.81 1018.97 1019.14 1019.33 1019.50 1019.64
1016.50 1016.78 1016.95 1017.06 1017.16 1017.27 1017.40 1017.53 1017.67 1017.77 1017.83 1017.83 1017.77 1017.65 1017.47 1017.27 1017.04 1016.80 1016.58 1016.38 1016.21 1016.07 1015.96 1015.87 1015.80 1015.73 1015.68 1015.62 1015.58 1015.57 1015.61 1015.70 1015.86 1016.11 1016.42 1016.79 1017.19 1017.60 1017.99 1018.35 1018.65 1018.92 1019.15 1019.36 1019.55 1019.74 1019.92 1020.08 1020.21
1016.58 1016.85 1017.05 1017.23 1017.40 1017.57 1017.73 1017.87 1017.97 1018.01 1017.99 1017.91 1017.78 1017.62 1017.43 1017.24 1017.04 1016.85 1016.67 1016.50 1016.34 1016.21 1016.10 1016.01 1015.94 1015.90 1015.88 1015.86 1015.87 1015.89 1015.94 1016.03 1016.18 1016.39 1016.66 1017.00 1017.38 1017.79 1018.21 1018.62 1018.99 1019.33 1019.62 1019.88 1020.09 1020.29 1020.46 1020.61 1020.73
1016.51 1016.78 1017.03 1017.28 1017.53 1017.77 1017.97 1018.11 1018.17 1018.15 1018.05 1017.89 1017.71 1017.52 1017.34 1017.17 1017.03 1016.89 1016.76 1016.63 1016.49 1016.36 1016.25 1016.17 1016.12 1016.11 1016.13 1016.17 1016.23 1016.30 1016.38 1016.47 1016.60 1016.76 1016.98 1017.27 1017.62 1018.02 1018.45 1018.89 1019.32 1019.71 1020.05 1020.34 1020.57 1020.77 1020.93 1021.06 1021.17
1016.28 1016.57 1016.88 1017.21 1017.55 1017.86 1018.09 1018.22 1018.23 1018.14 1017.96 1017.74 1017.52 1017.32 1017.16 1017.05 1016.98 1016.92 1016.85 1016.76 1016.66 1016.54 1016.44 1016.36 1016.34 1016.36 1016.43 1016.54 1016.66 1016.79 1016.90 1017.01 1017.11 1017.24 1017.41 1017.64 1017.93 1018.30 1018.72 1019.17 1019.62 1020.04 1020.41 1020.72 1020.96 1021.14 1021.28 1021.40 1021.50
1015.94 1016.25 1016.63 1017.05 1017.47 1017.83 1018.08 1018.19 1018.15 1017.98 1017.72 1017.45 1017.19 1017.01 1016.90 1016.87 1016.89 1016.92 1016.93 1016.90 1016.84 1016.74 1016.65 1016.59 1016.58 1016.64 1016.77 1016.94 1017.13 1017.32 1017.48 1017.61 1017.71 1017.80 1017.92 1018.09 1018.33 1018.64 1019.03 1019.46 1019.91 1020.33 1020.70 1021.00 1021.24 1021.40 1021.52 1021.62 1021.71
1015.56 1015.92 1016.38 1016.89 1017.37 1017.77 1018.01 1018.07 1017.96 1017.70 1017.36 1017.03 1016.76 1016.60 1016.56 1016.62 1016.74 1016.88 1016.99 1017.03 1017.01 1016.95 1016.87 1016.81 1016.83 1016.92 1017.09 1017.32 1017.58 1017.83 1018.04 1018.20 1018.31 1018.38 1018.46 1018.58 1018.77 1019.03 1019.36 1019.76 1020.17 1020.57 1020.92 1021.20 1021.41 1021.56 1021.66 1021.74 1021.83
1015.25 1015.68 1016.22 1016.80 1017.33 1017.74 1017.95 1017.94 1017.72 1017.36 1016.94 1016.55 1016.27 1016.13 1016.16 1016.32 1016.56 1016.81 1017.01 1017.14 1017.17 1017.13 1017.07 1017.02 1017.04 1017.14 1017.35 1017.63 1017.94 1018.25 1018.52 1018.72 1018.84 1018.92 1018.99 1019.07 1019.20 1019.41 1019.69 1020.03 1020.40 1020.76 1021.07 1021.32 1021.50 1021.62 1021.71 1021.78 1021.88
1015.10 1015.61 1016.24 1016.88 1017.43 1017.82 1017.96 1017.85 1017.52 1017.04 1016.52 1016.07 1015.76 1015.65 1015.74 1015.99 1016.33 1016.69 1017.00 1017.20 1017.29 1017.28 1017.22 1017.17 1017.19 1017.30 1017.52 1017.82 1018.17 1018.53 1018.85 1019.09 1019.25 1019.35 1019.42 1019.49 1019.59 1019.76 1019.99 1020.28 1020.60 1020.91 1021.18 1021.39 1021.54 1021.64 1021.71 1021.79 1021.89
1015.16 1015.77 1016.46 1017.15 1017.70 1018.03 1018.08 1017.85 1017.39 1016.78 1016.16 1015.63 1015.29 1015.19 1015.33 1015.66 1016.10 1016.55 1016.94 1017.22 1017.35 1017.37 1017.32 1017.27 1017.27 1017.37 1017.58 1017.89 1018.27 1018.65 1019.01 1019.29 1019.50 1019.63 1019.72 1019.79 1019.89 1020.04 1020.24 1020.49 1020.76 1021.02 1021.25 1021.43 1021.56 1021.65 1021.71 1021.78 1021.89
1015.43 1016.12 1016.88 1017.57 1018.10 1018.35 1018.30 1017.93 1017.33 1016.60 1015.87 1015.27 1014.90 1014.80 1014.97 1015.35 1015.86 1016.39 1016.85 1017.19 1017.37 1017.41 1017.38 1017.32 1017.31 1017.39 1017.58 1017.88 1018.25 1018.65 1019.02 1019.34 1019.58 1019.75 1019.87 1019.97 1020.08 1020.22 1020.41 1020.63 1020.87 1021.10 1021.31 1021.47 1021.58 1021.66 1021.73 1021.80 1021.91
1015.85 1016.61 1017.39 1018.07 1018.54 1018.70 1018.53 1018.04 1017.31 1016.47 1015.65 1015.00 1014.59 1014.49 1014.67 1015.09 1015.64 1016.22 1016.74 1017.12 1017.34 1017.42 1017.40 1017.35 1017.33 1017.39 1017.56 1017.83 1018.18 1018.57 1018.95 1019.28 1019.55 1019.75 1019.90 1020.03 1020.16 1020.31 1020.49 1020.71 1020.94 1021.15 1021.35 1021.50 1021.61 1021.70 1021.77 1021.85 1021.97
1016.31 1017.10 1017.88 1018.51 1018.90 1018.97 1018.69 1018.09 1017.27 1016.35 1015.48 1014.79 1014.37 1014.25 1014.44 1014.87 1015.45 1016.06 1016.61 1017.03 1017.29 1017.41 1017.41 1017.38 1017.37 1017.42 1017.57 1017.81 1018.13 1018.49 1018.85 1019.17 1019.45 1019.66 1019.84 1019.99 1020.15 1020.32 1020.51 1020.73 1020.96 1021.18 1021.37 1021.53 1021.65 1021.75 1021.84 1021.94 1022.06
1016.69 1017.47 1018.20 1018.77 1019.06 1019.04 1018.67 1018.00 1017.14 1016.19 1015.31 1014.62 1014.20 1014.10 1014.29 1014.71 1015.29 1015.90 1016.47 1016.91 1017.21 1017.37 1017.42 1017.42 1017.43 1017.49 1017.64 1017.86 1018.14 1018.47 1018.79 1019.09 1019.35 1019.56 1019.75 1019.91 1020.08 1020.27 1020.48 1020.71 1020.94 1021.16 1021.37 1021.54 1021.69 1021.81 1021.92 1022.04 1022.17
1016.89 1017.62 1018.27 1018.73 1018.93 1018.82 1018.40 1017.71 1016.85 1015.94 1015.11 1014.46 1014.08 1013.99 1014.19 1014.60 1015.15 1015.75 1016.30 1016.76 1017.09 1017.29 1017.40 1017.46 1017.52 1017.61 1017.76 1017.98 1018.24 1018.52 1018.80 1019.06 1019.29 1019.49 1019.66 1019.83 1020.00 1020.19 1020.41 1020.64 1020.88 1021.12 1021.34 1021.53 1021.70 1021.85 1021.99 1022.12 1022.26
1016.86 1017.50 1018.03 1018.39 1018.49 1018.32 1017.88 1017.21 1016.42 1015.60 1014.86 1014.30 1013.98 1013.93 1014.12 1014.51 1015.02 1015.57 1016.10 1016.54 1016.89 1017.14 1017.31 1017.44 1017.57 1017.72 1017.90 1018.12 1018.37 1018.63 1018.88 1019.10 1019.29 1019.45 1019.60 1019.76 1019.93 1020.12 1020.33 1020.56 1020.81 1021.05 1021.27 1021.48 1021.67 1021.84 1022.01 1022.17 1022.33
Thickness
5790 5790 5788 5776 5753 5733 5729 5737 5744 5746 5749 5755 5759 5756 5749 5744 5739 5737 5755 5763 5764 5764 5764 5764 5764 5764 5764 5764 5764 5763 5763 5762 5761 5761 5761 5760 5759 5759 5758 5758 5758 5758 5758 5758 5760 5759 5758 5757 5756
5789 5788 5778 5761 5735 5718 5725 5738 5742 5747 5753 5758 5758 5754 5749 5746 5751 5752 5756 5761 5762 5762 5761 5761 5762 5762 5762 5761 5761 5761 5760 5759 5759 5758 5757 5757 5756 5756 5755 5755 5755 5754 5754 5754 5755 5755 5754 5754 5753
5788 5784 5764 5746 5730 5722 5729 5741 5744 5752 5757 5757 5751 5751 5747 5745 5751 5753 5757 5760 5760 5759 5759 5759 5759 5759 5759 5759 5758 5758 5757 5756 5755 5755 5754 5753 5753 5752 5752 5752 5751 5751 5751 5751 5750 5750 5750 5750 5749
5781 5769 5756 5738 5729 5734 5739 5744 5749 5750 5753 5755 5750 5744 5747 5753 5754 5756 5758 5758 5757 5756 5756 5756 5756 5756 5756 5756 5755 5755 5754 5753 5752 5751 5750 5750 5749 5749 5748 5748 5748 5748 5748 5748 5747 5747 5747 5746 5746
5774 5756 5738 5726 5729 5737 5744 5748 5751 5747 5746 5747 5746 5739 5740 5750 5756 5756 5756 5755 5753 5753 5753 5753 5753 5753 5753 5752 5752 5751 5750 5749 5748 5747 5747 5746 5746 5745 5745 5744 5744 5744 5744 5743 5744 5743 5743 5742 5742
5757 5746 5724 5718 5727 5737 5743 5749 5748 5744 5743 5745 5743 5737 5737 5748 5750 5751 5752 5751 5750 5750 5750 5749 5749 5749 5749 5749 5748 5748 5747 5746 5745 5744 5743 5742 5742 5741 5741 5740 5740 5740 5740 5739 5740 5739 5739 5738 5738
5749 5735 5723 5722 5724 5731 5741 5748 5743 5740 5740 5742 5744 5735 5736 5742 5747 5748 5748 5747 5747 5746 5746 5746 5746 5745 5745 5745 5744 5744 5743 5742 5741 5740 5739 5739 5738 5737 5736 5736 5736 5736 5736 5736 5736 5735 5735 5734 5733
5754 5737 5724 5722 5723 5728 5741 5745 5745 5742 5739 5746 5745 5732 5731 5739 5744 5745 5744 5743 5742 5742 5742 5742 5741 5741 5741 5741 5740 5740 5739 5738 5737 5736 5735 5734 5734 5733 5732 5732 5732 5732 5732 5732 5732 5731 5731 5730 5729
5756 5728 5718 5723 5725 5730 5740 5739 5742 5745 5741 5741 5741 5739 5739 5742 5742 5739 5737 5736 5737 5737 5737 5737 5738 5737 5737 5737 5736 5736 5735 5733 5732 5731 5731 5730 5729 5729 5728 5728 5728 5728 5728 5728 5727 5727 5726 5725 5724
5743 5721 5727 5736 5736 5735 5738 5737 5738 5736 5732 5732 5734 5736 5739 5738 5736 5733 5731 5730 5730 5731 5733 5734 5734 5733 5733 5733 5732 5731 5730 5729 5728 5728 5727 5726 5726 5725 5725 5724 5724 5724 5724 5723 5723 5722 5721 5720 5719
5742 5729 5735 5739 5742 5741 5737 5736 5738 5731 5725 5728 5729 5730 5732 5732 5730 5729 5728 5728 5728 5729 5730 5730 5730 5730 5729 5728 5728 5727 5726 5725 5725 5724 5723 5723 5722 5721 5721 5720 5719 5719 5719 5719 5718 5717 5716 5715 5714
5737 5736 5739 5740 5743 5740 5735 5734 5731 5729 5728 5735 5734 5732 5730 5728 5726 5726 5726 5726 5726 5726 5727 5727 5727 5726 5725 5725 5724 5723 5723 5722 5721 5721 5720 5720 5718 5717 5716 5716 5715 5715 5715 5714 5713 5712 5711 5710 5709
5733 5734 5738 5740 5739 5736 5733 5728 5727 5726 5731 5733 5731 5728 5726 5725 5724 5725 5726 5725 5724 5724 5724 5724 5725 5723 5722 5721 5720 5720 5719 5718 5718 5718 5717 5716 5715 5714 5712 5712 5711 5710 5710 5710 5709 5707 5706 5705 5705
5733 5732 5733 5734 5734 5734 5727 5724 5723 5722 5727 5727 5725 5722 5722 5722 5722 5721 5721 5721 5721 5721 5721 5722 5721 5720 5719 5718 5717 5716 5716 5715 5715 5715 5714 5713 5712 5711 5709 5708 5707 5706 5706 5705 5704 5703 5701 5700 5699
5734 5725 5724 5728 5729 5728 5725 5714 5716 5722 5723 5720 5719 5718 5718 5719 5720 5719 5719 5719 5719 5719 5719 5719 5719 5717 5716 5715 5714 5714 5713 5712 5712 5711 5711 5710 5709 5708 5706 5705 5703 5702 5702 5701 5700 5698 5697 5696 5694
5724 5713 5705 5718 5724 5725 5718 5702 5714 5719 5717 5713 5713 5714 5714 5716 5717 5718 5719 5719 5719 5718 5717 5717 5717 5715 5713 5713 5711 5710 5710 5709 5709 5708 5707 5707 5706 5705 5703 5701 5700 5699 5698 5697 5695 5693 5692 5689 5688
5705 5696 5699 5709 5720 5719 5712 5703 5712 5715 5714 5710 5710 5710 5711 5712 5714 5716 5717 5718 5717 5716 5714 5714 5714 5712 5711 5710 5708 5707 5707 5706 5706 5705 5704 5703 5703 5701 5700 5698 5696 5695 5694 5692 5691 5689 5687 5684 5683
5695 5696 5698 5701 5713 5712 5705 5703 5709 5711 5711 5708 5707 5707 5707 5709 5712 5715 5716 5716 5715 5714 5712 5711 5711 5710 5709 5707 5705 5704 5703 5703 5702 5702 5701 5700 5699 5698 5697 5695 5693 5692 5690 5688 5686 5684 5682 5680 5679
5705 5700 5696 5703 5714 5708 5701 5701 5705 5708 5707 5705 5704 5705 5705 5708 5712 5713 5714 5714 5712 5711 5709 5708 5707 5706 5705 5703 5701 5699 5698 5698 5698 5698 5697 5697 5696 5695 5694 5692 5690 5689 5687 5684 5683 5680 5678 5675 5675
5704 5696 5696 5703 5712 5706 5698 5699 5706 5706 5706 5707 5706 5705 5705 5706 5708 5710 5711 5711 5710 5708 5707 5706 5705 5704 5703 5702 5700 5698 5696 5695 5695 5695 5694 5694 5693 5692 5691 5689 5687 5686 5683 5681 5679 5677 5674 5672 5671
5701 5697 5697 5698 5703 5704 5698 5694 5700 5706 5708 5709 5708 5708 5707 5707 5706 5707 5708 5708 5707 5706 5705 5705 5703 5702 5701 5700 5698 5695 5693 5692 5690 5690 5690 5690 5690 5689 5688 5687 5685 5683 5681 5678 5677 5675 5673 5669 5667
5694 5707 5705 5700 5690 5682 5691 5675 5693 5700 5702 5705 5706 5706 5707 5708 5708 5707 5706 5706 5705 5706 5705 5704 5702 5700 5699 5698 5695 5692 5689 5687 5687 5687 5687 5687 5687 5686 5686 5684 5683 5681 5679 5676 5675 5674 5672 5669 5665
5703 5709 5703 5698 5689 5680 5683 5675 5683 5695 5696 5702 5706 5708 5709 5709 5708 5707 5707 5706 5706 5705 5703 5702 5700 5698 5697 5696 5694 5691 5687 5686 5685 5684 5683 5683 5684 5683 5683 5682 5680 5678 5676 5675 5673 5671 5670 5667 5665
5709 5700 5692 5683 5678 5667 5678 5673 5677 5687 5697 5704 5709 5710 5710 5710 5708 5707 5707 5705 5704 5703 5701 5699 5697 5695 5694 5693 5691 5689 5686 5684 5682 5681 5680 5679 5679 5679 5679 5678 5677 5675 5674 5672 5671 5669 5667 5665 5663
5700 5681 5663 5661 5655 5660 5677 5673 5679 5700 5705 5707 5710 5711 5711 5710 5707 5704 5703 5701 5700 5699 5698 5696 5694 5692 5691 5690 5689 5687 5685 5683 5680 5679 5678 5676 5675 5675 5675 5675 5674 5672 5671 5670 5668 5666 5664 5662 5660
5691 5683 5661 5653 5650 5658 5672 5669 5685 5704 5709 5711 5712 5711 5710 5707 5705 5704 5702 5700 5699 5697 5695 5693 5691 5689 5688 5687 5686 5685 5683 5681 5679 5678 5676 5675 5674 5674 5673 5672 5671 5669 5668 5667 5665 5663 5661 5659 5657
5686 5678 5680 5663 5659 5655 5662 5674 5690 5703 5704 5706 5706 5706 5704 5703 5702 5702 5701 5699 5697 5695 5693 5691 5689 5687 5685 5684 5683 5681 5680 5678 5677 5676 5674 5673 5672 5671 5670 5669 5667 5665 5664 5663 5661 5659 5657 5655 5654
5691 5680 5666 5659 5650 5645 5658 5665 5672 5689 5694 5698 5699 5698 5699 5699 5699 5698 5697 5696 5694 5692 5691 5688 5686 5684 5683 5681 5680 5679 5677 5676 5674 5673 5671 5670 5669 5668 5667 5665 5664 5662 5660 5658 5657 5655 5653 5651 5649
5678 5674 5665 5656 5654 5644 5643 5659 5687 5689 5693 5693 5694 5696 5696 5695 5694 5694 5693 5692 5690 5688 5686 5684 5682 5680 5679 5678 5676 5675 5673 5672 5671 5669 5668 5667 5666 5665 5663 5662 5660 5658 5656 5654 5652 5650 5649 5646 5645
5682 5675 5664 5653 5648 5645 5642 5657 5692 5690 5691 5691 5691 5692 5693 5692 5691 5689 5688 5687 5684 5682 5680 5678 5677 5676 5675 5674 5672 5671 5669 5667 5666 5666 5665 5664 5663 5662 5660 5658 5656 5654 5652 5650 5648 5646 5644 5642 5640